When you browse on this site, cookies collect data to enhance your experience and personalize the content and advertising you see.
Visit our Privacy Policy to learn more. By continuing to use the site, you agree to this use of cookies and data.
  • In Czech Republic
  • List of Countries
  • For 7 days
  • Water Temperature
  • Satellite Maps
  • Weather Map
  • Weather Widgets
  • user-avatar
    Login

    Hourly Weather Mingachevir

    Today, 25 June, Tuesday

    Time Temperature Precipitation Wind Pressure Humidity
    00:00 +30°C° 0 mm 1 mps 751 mmHg 41%
    01:00 +29°C° 0 mm 1 mps 751 mmHg 43%
    02:00 +29°C° 0 mm 1 mps 751 mmHg 44%
    03:00 +28°C° 0 mm 1 mps 751 mmHg 46%
    04:00 +29°C° 0 mm 2 mps 751 mmHg 48%
    05:00 +29°C° 0 mm 3 mps 751 mmHg 49%
    06:00 +30°C° 0 mm 3 mps 751 mmHg 51%
    07:00 +33°C° 0 mm 3 mps 751 mmHg 45%
    08:00 +35°C° 0 mm 3 mps 751 mmHg 39%
    09:00 +37°C° 0 mm 3 mps 751 mmHg 33%
    10:00 +38°C° 0 mm 3 mps 751 mmHg 28%
    11:00 +39°C° 0 mm 3 mps 751 mmHg 23%
    12:00 +41°C° 0 mm 2 mps 751 mmHg 17%
    13:00 +42°C° 0 mm 3 mps 751 mmHg 17%
    14:00 +43°C° 0 mm 4 mps 750 mmHg 16%
    15:00 +43°C° 0 mm 4 mps 750 mmHg 15%
    16:00 +43°C° 0 mm 4 mps 750 mmHg 17%
    17:00 +42°C° 0 mm 4 mps 750 mmHg 18%
    18:00 +41°C° 0 mm 4 mps 750 mmHg 20%
    19:00 +38°C° 0 mm 4 mps 751 mmHg 22%
    20:00 +36°C° 0 mm 4 mps 751 mmHg 25%
    21:00 +33°C° 0 mm 4 mps 751 mmHg 28%
    22:00 +31°C° 0 mm 3 mps 751 mmHg 30%
    23:00 +31°C° 0 mm 3 mps 751 mmHg 32%

    Tomorrow, 26 June, Wednesday

    Time Temperature Precipitation Wind Pressure Humidity
    00:00 +30°C° 0 mm 2 mps 751 mmHg 34%
    01:00 +29°C° 0 mm 2 mps 751 mmHg 36%
    02:00 +28°C° 0 mm 1 mps 751 mmHg 37%
    03:00 +28°C° 0 mm 1 mps 751 mmHg 39%
    04:00 +28°C° 0 mm 1 mps 751 mmHg 39%
    05:00 +29°C° 0 mm 1 mps 752 mmHg 39%
    06:00 +30°C° 0 mm 1 mps 752 mmHg 40%
    07:00 +32°C° 0 mm 1 mps 752 mmHg 36%
    08:00 +33°C° 0 mm 1 mps 752 mmHg 33%
    09:00 +35°C° 0 mm 1 mps 752 mmHg 30%
    10:00 +38°C° 0 mm 2 mps 751 mmHg 26%
    11:00 +39°C° 0 mm 3 mps 751 mmHg 22%
    12:00 +42°C° 0 mm 4 mps 751 mmHg 18%
    13:00 +42°C° 0 mm 5 mps 751 mmHg 18%
    14:00 +42°C° 0 mm 5 mps 750 mmHg 19%
    15:00 +42°C° 0 mm 6 mps 750 mmHg 19%
    16:00 +42°C° 0 mm 6 mps 750 mmHg 21%
    17:00 +41°C° 0 mm 6 mps 750 mmHg 23%
    18:00 +40°C° 0 mm 6 mps 750 mmHg 25%
    19:00 +38°C° 0 mm 6 mps 750 mmHg 30%
    20:00 +35°C° 0 mm 7 mps 750 mmHg 36%
    21:00 +33°C° 0 mm 8 mps 751 mmHg 42%
    22:00 +32°C° 0 mm 7 mps 751 mmHg 44%
    23:00 +32°C° 0 mm 6 mps 751 mmHg 46%

    Day after tomorrow, 27 June, Thursday

    Time Temperature Precipitation Wind Pressure Humidity
    00:00 +30°C° 0 mm 5 mps 750 mmHg 48%
    01:00 +29°C° 0 mm 5 mps 751 mmHg 50%
    02:00 +29°C° 0 mm 4 mps 751 mmHg 51%
    03:00 +28°C° 0 mm 4 mps 751 mmHg 53%
    04:00 +28°C° 0 mm 4 mps 751 mmHg 53%
    05:00 +29°C° 0 mm 4 mps 751 mmHg 52%
    06:00 +29°C° 0 mm 4 mps 751 mmHg 52%
    07:00 +30°C° 0 mm 5 mps 751 mmHg 49%
    08:00 +32°C° 0 mm 6 mps 751 mmHg 46%
    09:00 +33°C° 0 mm 6 mps 750 mmHg 42%
    10:00 +34°C° 0 mm 6 mps 750 mmHg 40%
    11:00 +35°C° 0 mm 7 mps 750 mmHg 38%
    12:00 +36°C° 0 mm 7 mps 749 mmHg 36%
    13:00 +36°C° 0 mm 7 mps 749 mmHg 35%
    14:00 +36°C° 0 mm 7 mps 748 mmHg 34%
    15:00 +38°C° 0 mm 7 mps 748 mmHg 33%
    16:00 +36°C° 0.1 mm 7 mps 748 mmHg 32%
    17:00 +35°C° 0.1 mm 7 mps 748 mmHg 31%
    18:00 +34°C° 0.1 mm 7 mps 747 mmHg 30%
    19:00 +33°C° 0 mm 7 mps 748 mmHg 33%
    20:00 +30°C° 0 mm 6 mps 748 mmHg 36%
    21:00 +29°C° 0 mm 6 mps 748 mmHg 38%
    22:00 +28°C° 0 mm 6 mps 748 mmHg 41%
    23:00 +27°C° 0 mm 5 mps 748 mmHg 44%

    28 June, Friday

    Time Temperature Precipitation Wind Pressure Humidity
    00:00 +27°C° 0 mm 5 mps 747 mmHg 47%
    01:00 +26°C° 0 mm 4 mps 747 mmHg 47%
    02:00 +26°C° 0 mm 4 mps 747 mmHg 48%
    03:00 +25°C° 0 mm 3 mps 747 mmHg 48%
    04:00 +25°C° 0.1 mm 3 mps 747 mmHg 48%
    05:00 +26°C° 0.1 mm 2 mps 746 mmHg 47%
    06:00 +26°C° 0.1 mm 2 mps 746 mmHg 47%
    07:00 +28°C° 0 mm 3 mps 746 mmHg 42%
    08:00 +29°C° 0 mm 3 mps 746 mmHg 37%
    09:00 +30°C° 0 mm 3 mps 745 mmHg 32%
    10:00 +31°C° 0.1 mm 3 mps 745 mmHg 31%
    11:00 +33°C° 0.1 mm 3 mps 744 mmHg 31%
    12:00 +34°C° 0.1 mm 3 mps 744 mmHg 30%
    13:00 +34°C° 0.1 mm 2 mps 743 mmHg 30%
    14:00 +35°C° 0.1 mm 2 mps 743 mmHg 30%
    15:00 +34°C° 0.1 mm 1 mps 742 mmHg 29%
    16:00 +34°C° 0.1 mm 1 mps 742 mmHg 32%
    17:00 +34°C° 0.1 mm 2 mps 742 mmHg 34%
    18:00 +34°C° 0.1 mm 2 mps 742 mmHg 37%
    19:00 +32°C° 0 mm 2 mps 742 mmHg 39%
    20:00 +31°C° 0 mm 1 mps 743 mmHg 42%
    21:00 +29°C° 0 mm 1 mps 744 mmHg 45%
    22:00 +29°C° 0 mm 1 mps 743 mmHg 46%
    23:00 +29°C° 0 mm 1 mps 743 mmHg 48%

    29 June, Saturday

    Time Temperature Precipitation Wind Pressure Humidity
    00:00 +29°C° 0 mm 1 mps 743 mmHg 49%
    01:00 +28°C° 0 mm 1 mps 743 mmHg 50%
    02:00 +28°C° 0 mm 1 mps 743 mmHg 52%
    03:00 +27°C° 0 mm 2 mps 743 mmHg 53%
    04:00 +28°C° 0 mm 2 mps 743 mmHg 53%
    05:00 +28°C° 0 mm 2 mps 743 mmHg 52%
    06:00 +29°C° 0 mm 2 mps 743 mmHg 52%
    07:00 +30°C° 0 mm 3 mps 743 mmHg 48%
    08:00 +33°C° 0 mm 4 mps 743 mmHg 43%
    09:00 +34°C° 0 mm 5 mps 743 mmHg 39%
    10:00 +35°C° 0 mm 4 mps 742 mmHg 36%
    11:00 +37°C° 0 mm 4 mps 742 mmHg 34%
    12:00 +38°C° 0 mm 3 mps 742 mmHg 31%
    13:00 +38°C° 0.1 mm 3 mps 742 mmHg 30%
    14:00 +39°C° 0.1 mm 3 mps 741 mmHg 29%
    15:00 +39°C° 0.1 mm 3 mps 741 mmHg 28%
    16:00 +38°C° 0 mm 4 mps 741 mmHg 30%
    17:00 +38°C° 0 mm 4 mps 741 mmHg 31%
    18:00 +37°C° 0 mm 5 mps 741 mmHg 33%
    19:00 +35°C° 0 mm 5 mps 742 mmHg 37%
    20:00 +34°C° 0 mm 5 mps 743 mmHg 40%
    21:00 +32°C° 0 mm 5 mps 743 mmHg 44%
    22:00 +30°C° 0.3 mm 5 mps 744 mmHg 49%
    23:00 +28°C° 0.3 mm 5 mps 744 mmHg 53%

    30 June, Sunday

    Time Temperature Precipitation Wind Pressure Humidity
    00:00 +27°C° 0.3 mm 5 mps 744 mmHg 58%
    01:00 +27°C° 0.3 mm 5 mps 744 mmHg 62%
    02:00 +26°C° 0.3 mm 5 mps 745 mmHg 65%
    03:00 +25°C° 0.3 mm 4 mps 745 mmHg 69%
    04:00 +25°C° 0.2 mm 4 mps 745 mmHg 67%
    05:00 +26°C° 0.2 mm 4 mps 745 mmHg 65%
    06:00 +26°C° 0.2 mm 3 mps 745 mmHg 63%
    07:00 +27°C° 0.1 mm 4 mps 745 mmHg 59%
    08:00 +28°C° 0.1 mm 5 mps 745 mmHg 55%
    09:00 +29°C° 0.1 mm 5 mps 745 mmHg 51%
    10:00 +29°C° 0 mm 6 mps 745 mmHg 51%
    11:00 +29°C° 0 mm 6 mps 745 mmHg 50%
    12:00 +29°C° 0 mm 6 mps 745 mmHg 50%
    13:00 +29°C° 0 mm 7 mps 744 mmHg 52%
    14:00 +28°C° 0 mm 8 mps 744 mmHg 54%
    15:00 +27°C° 0 mm 9 mps 744 mmHg 56%
    16:00 +26°C° 0.2 mm 9 mps 744 mmHg 60%
    17:00 +23°C° 0.2 mm 9 mps 744 mmHg 63%
    18:00 +22°C° 0.2 mm 9 mps 745 mmHg 67%
    19:00 +22°C° 0.8 mm 9 mps 745 mmHg 71%
    20:00 +21°C° 0.8 mm 9 mps 746 mmHg 75%
    21:00 +20°C° 0.8 mm 8 mps 746 mmHg 79%
    22:00 +19°C° 0.9 mm 9 mps 746 mmHg 79%
    23:00 +19°C° 0.9 mm 9 mps 746 mmHg 80%
    Show more